[[{"header":{"parameterUnit":"m.s-1","parameterCategory":1,"la1":30.2992,"la2":30.254,"lo1":-89.0895,"lo2":-89.0443,"dy":0.0025,"dx":0.0025,"nx":19,"ny":19,"refTime":"2026-05-12T09:00:00:Z","depth":0,"parameterNumber":2,"parameterNumberName":"U-component_of_WINDS"},"data":[0,0,0,-1.6816,-1.6823,-1.7176,-1.7178,-1.7611,-1.7615,0,0,0,0,0,0,0,0,0,0,0,-1.6698,-1.6701,-1.6816,-1.6824,-1.7176,-1.7178,-1.7611,-1.7615,0,0,0,0,0,0,0,0,0,0,0,-1.6697,-1.67,-1.6703,-1.6825,-1.7176,-1.7178,-1.761,-1.7351,0,0,0,0,0,0,0,0,0,0,-1.7011,-1.6889,-1.67,-1.6703,-1.6827,-1.7176,-1.7178,-1.7339,-1.7367,-1.7443,0,-1.7505,0,-1.7566,-1.7643,-1.7644,0,0,0,-1.6835,-1.6866,-1.6972,-1.6704,-1.683,-1.7175,-1.702,-1.7355,-1.7387,-1.748,-1.7511,-1.7528,-1.7573,-1.7645,-1.7647,-1.8042,-1.8044,0,0,-1.6815,-1.6756,-1.695,-1.6992,-1.6933,-1.7009,-1.7031,-1.7374,-1.7405,-1.7513,-1.7538,-1.7581,-1.7648,-1.7651,-1.8041,-1.8043,0,0,0,-1.6752,-1.6742,-1.684,-1.6974,-1.7038,-1.7019,-1.7045,-1.739,-1.7427,-1.7543,-1.7586,-1.765,-1.7656,-1.804,-1.8042,-1.8049,0,0,0,-1.6741,-1.6705,-1.6831,-1.6798,-1.7031,-1.7218,-1.7052,-1.7403,-1.7444,-1.7583,-1.7651,-1.766,-1.8038,-1.8041,-1.8046,-1.8065,0,0,0,-1.668,-1.6698,-1.6744,-1.6794,-1.6943,-1.7214,-1.7271,-1.7413,-1.7469,-1.7644,-1.7661,-1.8038,-1.804,-1.8043,-1.806,-1.8152,0,0,0,-1.6599,-1.6748,-1.6743,-1.6926,-1.694,-1.7214,-1.7269,-1.7478,-1.7628,-1.7653,-1.8039,-1.8042,-1.8042,-1.8057,-1.8148,-1.8219,-1.8242,0,0,-1.6755,-1.6765,-1.6877,-1.6883,-1.7142,-1.7165,-1.7427,-1.7624,-1.7696,-1.7923,-1.7934,-1.8047,-1.806,-1.8151,-1.8389,-1.8407,0,0,0,-1.6906,-1.6986,-1.7068,-1.7206,-1.7357,-1.7488,-1.7649,-1.7722,-1.7917,-1.78,-1.8106,-1.8115,-1.8171,-1.8208,-1.8223,-1.8276,-1.8055,-1.8055,-1.8055,-1.7044,-1.7125,-1.7316,-1.7438,-1.7572,-1.7734,-1.7851,-1.7977,-1.8023,-1.8093,-1.8163,-1.8297,-1.8338,-1.835,-1.8403,-1.8204,-1.8204,-1.8205,-1.8205,-1.7281,-1.7408,-1.7459,-1.7663,-1.7748,-1.7921,-1.8083,-1.8108,-1.8284,-1.8252,-1.8306,-1.8266,-1.8367,-1.8418,-1.8206,-1.8206,-1.8206,-1.8205,-1.8205,-1.7383,-1.7458,-1.7539,-1.7746,-1.7896,-1.8015,-1.8179,-1.8251,-1.8321,-1.8373,-1.8454,-1.8455,-1.8466,-1.8405,-1.8406,-1.8407,-1.8407,-1.8407,-1.8408,-1.7457,-1.7549,-1.7677,-1.7845,-1.7942,-1.8079,-1.8241,-1.834,-1.8467,-1.8507,-1.8508,-1.8547,-1.8359,-1.8312,-1.8415,-1.8414,-1.8413,-1.8412,-1.8412,-1.7673,-1.7634,-1.7832,-1.7929,-1.8131,-1.8276,-1.8362,-1.8556,-1.8648,-1.8726,-1.8752,-1.8601,-1.8618,-1.8607,-1.8569,-1.8733,-1.8733,-1.8733,-1.8733,-1.7761,-1.7774,-1.7992,-1.8141,-1.8295,-1.8393,-1.8615,-1.8741,-1.8866,-1.8928,-1.8913,-1.8867,-1.8852,-1.8879,-1.8862,-1.8827,-1.9053,-1.9054,-1.9054,-1.7899,-1.793,-1.8105,-1.8222,-1.8385,-1.8523,-1.8735,-1.8906,-1.904,-1.9069,-1.8978,-1.8965,-1.8891,-1.8862,-1.8894,-1.8865,-1.8803,0,0]},{"header":{"parameterUnit":"m.s-1","parameterCategory":1,"la1":30.2992,"la2":30.254,"lo1":-89.0895,"lo2":-89.0443,"dy":0.0025,"dx":0.0025,"nx":19,"ny":19,"refTime":"2026-05-12T09:00:00:Z","depth":0,"parameterNumber":3,"parameterNumberName":"V-component_of_WINDS"},"data":[0,0,0,-5.1603,-5.1604,-5.162,-5.1619,-5.1703,-5.1704,0,0,0,0,0,0,0,0,0,0,0,-5.1635,-5.1637,-5.1603,-5.1604,-5.162,-5.1619,-5.1703,-5.1704,0,0,0,0,0,0,0,0,0,0,0,-5.1634,-5.1636,-5.1638,-5.1604,-5.162,-5.1619,-5.1702,-5.1668,0,0,0,0,0,0,0,0,0,0,-5.1642,-5.1707,-5.1636,-5.1638,-5.1605,-5.162,-5.1619,-5.1666,-5.1671,-5.1722,0,-5.1776,0,-5.1742,-5.1714,-5.1714,0,0,0,-5.1577,-5.1704,-5.1674,-5.1639,-5.1605,-5.162,-5.1605,-5.1668,-5.1673,-5.1729,-5.1777,-5.1778,-5.1743,-5.1714,-5.1715,-5.2098,-5.2101,0,0,-5.1577,-5.1658,-5.1671,-5.168,-5.1679,-5.1605,-5.1606,-5.167,-5.1729,-5.1777,-5.1779,-5.1745,-5.1715,-5.1717,-5.2095,-5.2098,0,0,0,-5.1592,-5.1659,-5.1626,-5.1678,-5.1676,-5.1606,-5.1607,-5.1726,-5.1708,-5.178,-5.1746,-5.1716,-5.1718,-5.2091,-5.2096,-5.2326,0,0,0,-5.159,-5.1667,-5.1627,-5.1678,-5.1676,-5.1701,-5.1663,-5.1704,-5.1708,-5.1745,-5.1716,-5.1719,-5.2088,-5.2094,-5.2312,-5.2422,0,0,0,-5.1621,-5.167,-5.1685,-5.1682,-5.1691,-5.1698,-5.1683,-5.1703,-5.1689,-5.1714,-5.172,-5.2085,-5.2093,-5.23,-5.2402,-5.2548,0,0,0,-5.1679,-5.189,-5.169,-5.1913,-5.1692,-5.1839,-5.1681,-5.1787,-5.1836,-5.1717,-5.2088,-5.2096,-5.2296,-5.2389,-5.2535,-5.2687,-5.2757,0,0,-5.1991,-5.1931,-5.2055,-5.1876,-5.208,-5.183,-5.2066,-5.2035,-5.1964,-5.2058,-5.2066,-5.2317,-5.24,-5.2545,-5.3117,-5.3173,0,0,0,-5.2182,-5.2273,-5.2309,-5.2358,-5.2337,-5.2329,-5.2252,-5.224,-5.2315,-5.2028,-5.2404,-5.2452,-5.2534,-5.2603,-5.265,-5.2716,-5.213,-5.2129,-5.2129,-5.2745,-5.2639,-5.2838,-5.2735,-5.2785,-5.2702,-5.2733,-5.2703,-5.2584,-5.2675,-5.2703,-5.3063,-5.3146,-5.3182,-5.3252,-5.2772,-5.2773,-5.2774,-5.2775,-5.3195,-5.3307,-5.3141,-5.3275,-5.3163,-5.3275,-5.3203,-5.3115,-5.3204,-5.3033,-5.3099,-5.2924,-5.3247,-5.3302,-5.2791,-5.2788,-5.2786,-5.2784,-5.2783,-5.3554,-5.3589,-5.3568,-5.3627,-5.3685,-5.3572,-5.3665,-5.3559,-5.3461,-5.3527,-5.3547,-5.3543,-5.3528,-5.3543,-5.3544,-5.3545,-5.3547,-5.3547,-5.3548,-5.3936,-5.3904,-5.3994,-5.3988,-5.4005,-5.4014,-5.3931,-5.3946,-5.3936,-5.3852,-5.3851,-5.3726,-5.3296,-5.3192,-5.3567,-5.3564,-5.3561,-5.356,-5.3558,-5.4437,-5.4305,-5.4445,-5.4462,-5.4445,-5.451,-5.4372,-5.4411,-5.4407,-5.4457,-5.4315,-5.4014,-5.3946,-5.3907,-5.382,-5.4335,-5.4335,-5.4335,-5.4335,-5.4743,-5.4695,-5.4813,-5.4847,-5.4868,-5.4757,-5.492,-5.4858,-5.4774,-5.4766,-5.4675,-5.455,-5.4515,-5.4467,-5.4416,-5.4334,-5.4968,-5.4969,-5.4969,-5.5046,-5.4995,-5.5154,-5.5066,-5.5044,-5.503,-5.518,-5.5228,-5.5105,-5.4993,-5.4758,-5.4731,-5.4528,-5.4466,-5.4354,-5.4277,-5.4124,0,0]}]]